Wind_Speed
24 28 31 29 28 28 25 27 28 29 30 29 27 28 32 43 52 36 45 43 42 39 37 36 36 37 37 36 35 33 31 28 27 27 24 21 21 21 20 20 20 20 19
14 19 21 22 22 20 22 23 22 24 25 29 22 24 26 28 37 33 50 47 44 41 39 35 36 37 38 36 36 35 33 31 29 29 28 26 25 24 23 23 22 22 21
11 15 15 19 18 19 22 23 20 21 29 30 32 26 29 28 28 29 32 36 39 40 40 35 36 37 39 37 37 37 35 32 31 31 30 28 26 26 25 24 24 22 21
8 9 14 17 19 21 21 21 23 26 27 23 26 28 40 32 28 26 28 31 31 33 36 38 38 37 39 38 37 37 37 36 34 32 31 30 28 26 26 26 24 22 21
6 3 5 8 12 15 18 20 22 23 25 25 26 27 29 36 38 35 34 33 30 31 34 37 38 38 38 39 38 37 37 37 36 35 34 33 31 30 28 24 21 21 22
13 10 6 2 4 7 11 15 17 21 22 26 27 29 33 31 32 33 41 35 36 35 33 34 35 36 37 39 39 38 36 37 38 37 37 36 33 30 26 23 22 23 21
17 15 12 7 1 6 10 13 14 15 17 17 22 26 27 28 32 30 29 32 29 30 32 29 32 34 34 34 35 37 35 35 36 34 36 35 32 27 25 24 23 21 21
18 15 13 10 8 4 2 7 14 16 15 15 18 21 22 24 27 29 32 31 30 30 30 29 30 31 33 33 34 35 38 38 37 36 34 29 28 26 25 22 22 22 24
17 15 12 9 8 8 5 2 3 8 14 19 18 19 21 23 24 24 24 26 26 28 28 28 27 29 30 30 30 33 35 36 37 37 36 34 30 29 23 23 23 23 21
17 15 13 12 10 8 7 6 4 1 5 10 15 19 21 21 23 24 25 26 27 29 28 28 29 29 29 30 31 33 36 37 38 37 33 31 28 25 25 26 23 20 18
15 14 13 12 11 10 8 5 5 3 2 3 6 10 14 19 22 24 25 27 27 28 29 30 30 29 29 30 29 32 34 34 35 33 30 27 25 24 22 21 19 16 16
14 14 14 13 11 10 9 7 5 4 4 3 2 3 6 9 14 19 22 25 24 24 24 25 25 24 24 23 24 25 29 28 30 31 28 26 25 23 20 17 15 14 16
13 13 13 12 11 10 8 8 7 6 5 5 5 4 2 3 5 6 9 11 13 15 17 16 16 16 17 18 22 22 26 27 28 27 27 26 24 20 19 18 17 17 17
11 11 11 11 11 10 9 8 7 7 6 5 5 6 5 3 4 8 10 11 11 11 11 11 11 13 17 21 22 25 25 24 25 25 25 23 22 22 23 20 18 16 15
12 11 10 10 10 10 10 9 8 6 7 7 5 5 7 8 8 8 8 7 5 6 8 9 11 15 21 23 23 24 22 22 23 22 21 21 22 22 20 18 16 14 13
11 11 10 10 9 9 9 8 9 8 7 6 7 6 6 8 10 12 12 10 7 7 9 12 16 19 21 23 24 23 21 21 20 19 20 21 21 20 18 16 14 13 12
14 12 11 11 10 10 10 9 8 7 7 7 6 7 6 6 8 11 13 15 11 11 11 13 17 20 21 22 23 23 22 20 18 19 19 20 19 18 17 15 12 11 9
14 16 14 12 10 10 10 11 10 9 7 6 7 6 6 6 5 5 9 13 14 15 12 12 15 17 19 20 21 22 20 19 18 18 19 19 18 17 16 15 13 9 9
14 14 15 15 14 12 11 12 12 11 9 8 6 5 4 3 3 5 6 13 19 18 14 12 13 15 16 18 19 21 21 20 20 20 21 19 17 16 16 14 13 10 8
17 18 18 17 16 15 14 13 13 13 12 9 7 6 5 6 5 4 3 10 11 15 14 12 11 13 14 16 18 20 21 21 21 20 19 19 18 17 15 13 10 8 8
18 18 19 19 18 16 15 14 14 14 13 13 10 8 7 9 8 7 6 6 8 9 11 13 14 14 16 18 19 19 20 20 20 20 21 20 18 15 13 11 9 8 7
16 16 16 17 17 16 15 15 14 15 14 14 13 12 11 11 13 11 8 7 6 8 9 12 14 16 17 18 19 20 20 22 22 21 19 17 15 12 9 7 7 7 8
18 18 18 18 18 17 15 15 14 14 15 16 15 14 15 13 14 15 15 13 9 9 12 12 12 15 18 18 19 19 21 20 19 18 15 12 9 8 8 8 8 8 8
17 17 17 17 18 18 18 16 16 15 14 16 17 18 17 16 16 16 16 18 18 16 14 13 14 15 18 19 19 19 19 19 18 16 14 11 10 10 10 9 9 8 8
14 15 15 15 15 16 17 18 19 19 18 16 16 19 20 20 18 18 18 18 19 20 20 20 18 17 18 18 18 17 16 14 13 11 11 11 12 11 11 10 9 8 8
13 13 12 13 14 14 15 15 16 17 18 19 19 17 19 22 22 21 20 20 21 21 22 23 23 23 21 20 19 17 15 13 12 12 12 13 12 12 11 10 10 9 9
Wind_Direction
174 187 196 204 213 223 235 240 241 243 250 243 240 239 242 237 237 241 230 227 230 227 232 236 238 241 240 239 244 247 248 248 250 252 253 252 252 252 254 257 261 266 269
143 173 189 199 210 212 222 234 240 241 245 247 241 241 241 244 244 236 235 234 228 229 234 238 236 240 243 239 241 246 249 249 248 250 253 252 253 254 254 257 260 264 271
152 173 181 192 203 213 223 225 231 237 240 239 241 240 240 240 241 244 245 245 242 239 237 239 243 238 242 244 241 243 245 246 246 247 251 251 251 251 253 256 259 264 269
122 152 186 201 210 217 219 223 223 236 238 241 240 240 239 241 241 241 245 244 241 244 243 242 244 245 243 244 246 246 245 243 243 243 246 249 250 251 250 252 257 263 263
82 122 166 193 209 218 227 224 227 228 236 238 240 237 239 236 248 245 248 250 245 243 245 245 245 245 245 244 244 248 246 243 241 241 242 243 245 246 250 257 257 257 261
70 76 70 77 237 225 224 221 224 233 235 227 236 233 230 242 242 235 244 247 243 240 243 246 246 249 248 245 242 244 247 246 244 244 242 243 246 249 251 252 254 254 260
72 69 66 67 182 229 231 231 228 225 222 222 225 234 234 232 240 239 237 244 245 249 243 241 243 247 249 248 245 246 243 241 243 248 251 248 246 247 247 245 248 256 270
65 63 60 59 60 73 199 233 242 243 240 238 233 233 232 237 237 239 241 244 244 241 245 243 244 247 248 249 247 247 245 237 232 236 240 241 240 232 237 244 247 254 266
54 54 53 51 44 47 51 75 215 235 247 251 248 245 240 237 237 239 241 241 243 243 243 243 244 246 247 249 247 247 243 237 234 233 233 234 236 243 242 247 248 254 257
48 42 34 33 32 31 31 28 28 340 245 233 237 243 247 244 242 241 241 241 242 244 243 244 245 246 245 246 245 244 238 233 228 224 223 235 240 238 240 244 242 241 248
42 37 32 28 22 17 11 4 3 358 342 280 248 239 238 237 239 242 243 245 246 248 249 249 249 250 248 245 242 241 240 236 228 229 235 231 229 231 235 235 237 237 242
34 31 27 21 20 15 8 356 341 325 318 315 297 260 252 245 241 236 234 239 240 242 244 246 246 246 245 239 237 238 233 232 228 225 221 220 224 227 227 227 229 227 231
19 18 17 17 14 6 5 3 349 332 315 301 296 297 289 254 221 202 208 216 227 235 238 240 238 234 231 223 226 225 224 221 218 217 218 222 227 228 219 219 222 223 234
2 1 0 358 0 2 359 351 353 347 330 307 291 280 268 246 214 210 219 233 236 228 222 219 217 210 205 210 211 213 214 214 216 218 219 220 215 212 217 220 220 224 228
358 347 342 341 342 344 346 346 339 332 330 322 304 282 264 251 233 227 228 231 224 215 208 200 196 196 198 203 206 211 211 213 213 213 212 208 206 207 207 209 208 214 222
357 351 336 325 324 323 327 333 331 325 311 308 298 290 271 256 240 231 228 229 224 222 211 202 197 198 200 202 204 205 208 207 206 204 199 198 199 197 196 198 199 213 236
341 341 339 328 311 309 305 310 310 313 312 300 298 286 275 260 247 236 225 221 221 227 219 213 211 208 206 206 207 208 205 203 197 191 192 190 191 196 195 197 206 214 207
321 322 322 320 317 295 291 288 291 303 294 297 287 291 278 271 255 231 220 209 195 218 217 213 213 214 213 209 206 206 205 200 195 192 191 190 187 190 194 199 199 189 183
311 307 306 306 303 301 282 275 277 278 285 286 275 278 263 196 183 224 221 208 201 212 217 219 217 213 212 211 208 206 208 204 198 191 187 190 194 195 187 182 184 190 204
302 298 296 294 294 292 290 273 265 267 266 267 265 250 238 205 198 206 171 210 211 208 207 207 205 205 199 194 188 186 187 190 194 194 189 184 180 175 176 181 190 204 227
298 292 290 288 285 284 282 278 263 256 258 257 250 242 222 217 211 207 200 202 204 214 222 215 206 196 190 189 192 191 190 180 173 174 172 170 170 175 182 194 207 226 248
296 290 287 283 280 278 275 271 265 254 247 246 244 234 230 219 212 210 196 191 193 198 195 190 186 187 183 179 175 168 163 169 170 169 170 171 177 184 196 215 236 253 268
296 290 285 280 275 271 269 266 264 257 248 242 237 233 231 222 216 213 210 203 186 178 166 161 166 164 160 165 169 172 171 169 169 172 177 179 191 211 227 241 257 268 268
301 295 287 280 274 270 265 259 257 258 255 245 239 235 234 229 221 214 211 208 205 199 188 182 179 177 176 175 175 175 178 183 189 191 192 199 217 233 245 253 258 257 259
305 300 293 284 276 273 270 267 260 254 254 252 244 235 233 233 228 221 215 210 207 203 201 199 196 195 196 194 194 193 190 191 196 200 209 220 233 240 245 248 249 248 243
307 305 299 289 283 276 271 267 265 261 254 249 246 241 233 231 230 229 223 219 213 208 206 205 206 207 210 210 207 205 210 213 217 220 225 232 237 239 239 237 235 229 220
Height
1318 1325 1331 1338 1344 1350 1356 1363 1368 1373 1377 1384 1389 1392 1397 1400 1406 1410 1418 1424 1428 1434 1440 1445 1450 1456 1460 1464 1469 1473 1476 1480 1482 1485 1487 1488 1490 1492 1493 1494 1495 1496 1496
1317 1321 1328 1335 1342 1347 1354 1360 1364 1370 1374 1378 1385 1390 1393 1397 1402 1406 1407 1416 1419 1425 1432 1438 1443 1448 1454 1457 1461 1466 1470 1473 1476 1479 1481 1483 1485 1487 1488 1489 1490 1491 1492
1318 1323 1329 1334 1339 1346 1354 1358 1361 1366 1369 1375 1379 1384 1390 1393 1396 1399 1404 1407 1413 1417 1424 1430 1436 1441 1446 1449 1453 1458 1463 1466 1469 1472 1476 1477 1479 1481 1483 1484 1485 1486 1487
1320 1325 1330 1335 1338 1344 1349 1354 1359 1362 1366 1369 1374 1378 1383 1386 1390 1395 1399 1403 1407 1412 1417 1423 1428 1433 1438 1443 1447 1451 1456 1459 1462 1465 1468 1471 1474 1474 1476 1478 1480 1481 1482
1324 1329 1331 1332 1335 1340 1345 1349 1354 1358 1361 1365 1368 1372 1377 1379 1384 1389 1393 1398 1402 1407 1410 1415 1420 1425 1431 1435 1439 1443 1448 1452 1455 1457 1460 1463 1465 1468 1469 1472 1475 1476 1476
1326 1332 1333 1334 1337 1340 1344 1346 1349 1353 1356 1358 1363 1367 1369 1373 1377 1381 1385 1391 1395 1401 1404 1408 1412 1417 1422 1426 1431 1435 1441 1444 1448 1450 1453 1455 1459 1462 1465 1467 1469 1469 1471
1332 1332 1333 1336 1340 1343 1343 1344 1347 1350 1352 1355 1357 1361 1364 1367 1372 1375 1379 1383 1387 1392 1397 1401 1405 1409 1415 1419 1422 1426 1430 1435 1440 1444 1447 1450 1453 1456 1459 1459 1462 1464 1466
1334 1336 1337 1342 1342 1341 1342 1343 1344 1347 1349 1351 1353 1356 1359 1363 1366 1370 1374 1378 1380 1385 1389 1392 1396 1400 1407 1412 1414 1417 1421 1425 1428 1433 1440 1444 1447 1448 1451 1454 1458 1460 1460
1339 1341 1344 1344 1344 1342 1342 1342 1343 1344 1345 1347 1349 1352 1355 1358 1361 1365 1367 1371 1374 1378 1382 1386 1390 1395 1400 1403 1406 1409 1414 1416 1421 1426 1430 1435 1438 1442 1446 1450 1452 1454 1454
1346 1346 1347 1345 1344 1343 1343 1343 1343 1343 1344 1345 1346 1348 1351 1353 1356 1359 1362 1365 1369 1372 1376 1380 1384 1388 1393 1396 1399 1401 1406 1409 1413 1418 1425 1430 1433 1436 1439 1444 1445 1448 1450
1350 1349 1348 1346 1345 1345 1345 1344 1344 1344 1345 1345 1346 1347 1348 1350 1352 1354 1357 1360 1363 1367 1370 1373 1377 1381 1385 1388 1392 1395 1400 1404 1409 1416 1420 1425 1428 1430 1434 1438 1440 1443 1444
1351 1350 1349 1348 1347 1347 1347 1347 1346 1345 1345 1346 1345 1346 1346 1347 1348 1350 1352 1355 1358 1361 1363 1367 1371 1374 1378 1382 1385 1390 1395 1401 1405 1410 1414 1418 1422 1426 1430 1433 1437 1438 1440
1352 1351 1351 1351 1350 1349 1348 1347 1347 1346 1345 1345 1345 1345 1345 1345 1346 1348 1350 1352 1354 1357 1360 1363 1366 1369 1373 1377 1381 1386 1391 1395 1400 1405 1409 1413 1418 1423 1427 1430 1433 1434 1437
1353 1353 1352 1352 1351 1350 1349 1348 1347 1346 1346 1345 1345 1345 1345 1346 1347 1348 1350 1351 1353 1354 1356 1359 1361 1365 1369 1373 1379 1383 1387 1392 1397 1401 1405 1410 1416 1418 1423 1427 1429 1431 1433
1354 1353 1353 1352 1351 1351 1349 1348 1348 1347 1346 1345 1345 1345 1345 1346 1347 1348 1349 1351 1352 1353 1355 1356 1359 1363 1367 1372 1377 1380 1386 1389 1394 1398 1402 1407 1412 1415 1420 1423 1426 1427 1430
1355 1354 1353 1352 1351 1351 1350 1348 1347 1346 1346 1346 1345 1345 1344 1344 1345 1346 1348 1350 1351 1353 1355 1356 1359 1362 1366 1371 1375 1378 1383 1387 1392 1396 1400 1405 1410 1413 1417 1421 1423 1426 1428
1354 1353 1352 1351 1350 1349 1349 1348 1347 1347 1345 1345 1345 1344 1344 1344 1343 1344 1346 1348 1350 1352 1354 1357 1359 1362 1365 1369 1373 1377 1381 1385 1390 1395 1399 1403 1408 1412 1415 1418 1421 1424 1426
1353 1351 1349 1349 1348 1347 1347 1347 1346 1345 1345 1344 1344 1344 1343 1343 1342 1342 1343 1345 1349 1351 1353 1356 1358 1361 1364 1368 1372 1376 1381 1385 1389 1393 1398 1402 1406 1410 1413 1417 1420 1422 1425
1351 1350 1348 1346 1345 1345 1344 1344 1343 1343 1343 1343 1343 1343 1343 1342 1342 1342 1342 1344 1346 1349 1352 1354 1357 1359 1363 1366 1369 1374 1378 1383 1387 1392 1396 1400 1404 1408 1412 1415 1419 1421 1423
1347 1345 1344 1343 1341 1340 1340 1340 1340 1340 1341 1341 1341 1341 1342 1342 1342 1342 1343 1344 1346 1349 1351 1354 1356 1358 1361 1364 1368 1372 1377 1382 1386 1391 1395 1399 1403 1407 1411 1414 1417 1419 1421
1342 1340 1338 1337 1337 1336 1336 1335 1336 1336 1337 1338 1339 1339 1340 1341 1342 1343 1344 1345 1347 1349 1351 1353 1355 1357 1360 1363 1368 1372 1376 1380 1385 1390 1394 1398 1402 1406 1410 1413 1415 1417 1419
1337 1335 1334 1332 1331 1331 1331 1331 1331 1332 1333 1334 1335 1336 1337 1338 1340 1342 1343 1345 1346 1348 1350 1352 1354 1356 1360 1363 1367 1371 1376 1381 1386 1390 1394 1398 1402 1405 1408 1411 1413 1414 1415
1332 1330 1329 1328 1327 1326 1326 1326 1327 1327 1328 1330 1331 1333 1334 1335 1337 1339 1341 1344 1346 1348 1350 1352 1354 1357 1360 1364 1369 1374 1377 1381 1386 1391 1394 1397 1401 1404 1406 1408 1410 1411 1412
1326 1325 1323 1323 1322 1321 1322 1322 1322 1323 1324 1325 1327 1328 1330 1332 1334 1336 1338 1340 1344 1347 1350 1353 1356 1359 1362 1366 1369 1373 1377 1382 1385 1389 1392 1396 1399 1401 1403 1405 1406 1407 1409
1322 1320 1319 1318 1317 1317 1317 1317 1318 1319 1319 1320 1322 1323 1325 1327 1330 1332 1334 1337 1340 1344 1348 1351 1355 1359 1362 1366 1369 1373 1377 1380 1384 1387 1390 1393 1396 1398 1400 1401 1403 1404 1406
1319 1317 1316 1314 1313 1313 1312 1312 1313 1313 1314 1315 1317 1318 1320 1322 1324 1327 1330 1333 1337 1340 1344 1347 1352 1356 1360 1364 1367 1371 1375 1378 1381 1384 1387 1390 1392 1394 1396 1398 1400 1402 1404